Tracking 18850 objects as of 22-Nov-2017
HD Live streaming from Space Station
objects crossing your sky now

WESTFORD NEEDLES

Track WESTFORD NEEDLES now!
10-day predictions
WESTFORD NEEDLES is classified as:


NORAD ID: 629
Int'l Code: 1963-014G
Perigee: 3,591.4 km
Apogee: 3,707.2 km
Inclination: 87.3 °
Period: 166.4 minutes
Semi major axis: 10020 km
RCS: 1.0881 m2 (large)
Launch date: May 9, 1963
Source: United States (US)
Launch site: AIR FORCE WESTERN TEST RANGE (AFWTR)
aabbcc
Your satellite tracking list
Your tracking list is empty




NASA's NSSDC Master Catalog

Two Line Element Set (TLE):
1 00629U 63014G   17322.55791813 -.00000018  00000-0 -95645-2 0  9997
2 00629  87.3245 130.9206 0057795 347.0483  12.8886  8.65531788723120
Source of the keplerian elements: AFSPC